Lid_Strength_Index
-0 -0 -0 -0 0 -0 2 2 1 3 2 3 2 3 3 2 2 2 2 2 2 2 2 2 2 1 1 1 1 1 2 2 4 3 2 2 3 2 2 3 3 4 4
-0 -0 0 0 0 2 3 2 2 3 3 3 3 4 4 3 2 3 3 2 3 3 2 1 2 2 2 1 2 1 1 2 3 4 4 3 4 3 3 4 4 4 3
1 1 1 1 4 3 2 2 2 3 3 4 4 4 4 3 3 2 3 3 3 3 2 2 2 2 2 2 2 1 2 1 2 3 5 4 5 5 5 5 5 4 4
2 2 1 3 3 4 3 3 4 4 5 5 4 4 3 3 4 3 2 2 3 3 2 2 3 3 3 2 1 2 1 2 3 3 4 5 6 5 5 5 5 5 5
3 3 5 4 4 3 3 2 3 3 3 2 2 2 3 3 4 4 4 3 4 3 3 2 2 3 3 3 3 3 2 2 3 4 5 6 6 6 6 5 6 6 5
4 5 5 3 3 3 3 3 3 2 1 1 1 2 3 3 6 5 4 5 4 4 4 4 4 4 4 4 4 4 4 4 5 4 5 7 6 6 6 7 7 7 6
6 5 4 3 3 3 3 2 1 1 1 1 1 1 2 3 6 6 4 3 5 5 5 5 5 4 4 5 5 6 5 5 5 5 5 6 6 6 6 7 6 4 4
4 4 4 3 4 2 1 1 1 1 1 1 1 0 0 1 4 4 3 1 3 4 4 4 4 5 5 6 5 6 6 5 6 6 5 4 4 4 4 5 3 2 3
4 4 3 2 1 2 2 1 1 1 0 0 0 0 0 0 5 4 2 0 1 2 2 4 4 4 8 7 5 6 6 6 5 6 7 7 7 6 4 4 3 3 5
2 2 2 1 2 2 1 1 0 1 1 1 0 0 2 0 5 4 2 0 1 2 2 3 7 6 8 8 4 4 6 7 7 6 6 6 5 5 5 2 3 4 5
1 1 1 1 1 0 0 0 1 1 1 1 1 0 0 2 1 5 5 0 1 2 4 5 5 8 8 8 8 6 7 6 6 6 6 6 5 5 4 3 2 3 5
1 1 1 1 1 2 2 1 1 1 2 1 1 1 1 1 4 4 5 5 5 3 4 4 6 8 9 9 7 9 8 6 6 7 7 7 7 5 5 4 5 5 6
2 2 2 2 2 1 2 2 3 2 3 3 3 3 3 1 1 4 6 6 6 4 4 6 8 8 8 8 9 9 8 6 7 7 8 7 6 5 4 5 6 7 7
2 3 2 2 2 1 2 2 3 3 3 4 3 3 2 2 3 2 4 5 6 5 6 5 7 7 8 8 7 7 7 6 7 7 7 7 6 6 7 7 7 7 8
2 2 2 2 1 1 2 3 3 4 5 4 4 4 5 4 5 7 7 5 5 6 6 6 7 8 8 8 8 8 7 7 7 6 7 7 7 7 7 6 7 8 9
3 3 3 3 3 1 3 2 6 6 7 8 8 6 4 8 9 9 10 10 10 9 7 8 9 9 9 9 9 8 7 7 6 6 7 7 7 6 7 7 8 8 9
4 4 4 3 3 2 1 1 2 3 6 7 8 7 9 10 10 10 10 9 10 8 8 9 9 9 9 9 9 8 8 7 6 7 7 6 6 6 7 8 8 8 9
3 6 3 3 1 1 1 3 4 5 6 6 6 8 9 9 10 10 10 8 8 8 9 9 9 9 9 9 8 8 7 6 5 5 5 5 6 8 8 9 9 9 9
3 3 2 2 1 2 3 5 5 5 6 7 8 7 8 10 10 9 8 6 6 7 7 7 7 7 7 6 6 6 6 6 6 5 5 6 8 8 9 9 9 11 10
3 6 5 3 3 4 4 5 5 6 7 7 9 9 9 8 7 7 7 6 6 6 6 5 5 5 5 5 5 5 6 6 6 6 6 7 7 7 8 8 8 9 9
3 3 6 3 3 5 7 7 7 8 8 9 8 9 12 7 7 7 7 6 6 5 5 5 5 5 5 5 5 6 6 6 7 6 6 6 6 8 8 8 8 8 8
3 4 4 5 6 7 7 7 7 7 7 7 7 7 11 6 6 6 6 7 7 6 5 5 4 5 5 6 7 6 6 6 5 5 5 6 7 7 6 7 7 7 7
4 5 5 5 6 8 7 7 7 6 6 6 6 6 5 5 5 7 7 7 7 6 6 5 5 6 5 6 5 5 5 5 5 5 5 5 5 5 5 6 7 6 5
5 5 6 6 5 5 6 6 6 8 5 6 5 5 6 6 6 7 7 6 6 7 7 6 6 6 5 5 5 4 4 3 3 3 3 3 4 4 6 7 5 4 4
5 5 6 6 6 5 6 6 6 6 6 6 5 5 6 5 5 6 6 6 6 6 6 5 6 6 5 5 5 5 11 13 5 8 3 3 4 4 5 4 3 3 3
5 5 5 5 5 6 6 6 6 6 6 6 5 5 5 5 5 5 5 5 5 4 5 6 5 5 5 5 6 12 13 13 8 13 4 3 3 3 3 3 3 3 3